FENGYUN 1C DEB, 36230

Orbit data source: Space-Track

FENGYUN 1C DEB, 36230 is space debris in SSO originally from a launch on Mon, 10 May 1999 UTC launched from the Taiyaun Space Center, China (TSC). Fengyun 1C debris stems from the Chinese weather satellite Fengyun-1C, which was intentionally destroyed by a Chinese anti-satellite missile in 2007. This event dramatically increased the amount of space debris, with thousands of trackable fragments posing hazards to satellites and human spaceflight. The Fengyun 1C debris cloud has become a focal point in discussions about space sustainability and the need for international regulations to prevent the creation of new debris.

Loading next visibility...
Identifier
36230, 1999-025DVF
Orbit
SSO
Country
Flag of CNCN / PRC
Related business
Manufacturer
Unknown
Mission
Spacecraft
Bus & Motor
Unknown
Mass
Unknown
Launch date (UTC)
1999-05-10 (27 years ago)
Launch vehicle
Unknown
Launch site
Taiyaun Space Center, China (TSC)
Object type
Payload
Rocket body
Debris
Shape & HBR
Unknown shape, 0.1 m
Radar Cross Section
Small (<0.1 m²)

Expand to show TLE details & history
Last TLE update: 1 day ago

TLE from 1 day ago
0 FENGYUN 1C DEB
1 36230U 99025DVF 26149.45293916  .00001360  00000-0  12254-2 0  9996
2 36230  99.5155 229.4237 0213529  64.4632 297.8428 13.75912856641925
Epoch: 2026-05-29T10:52Z
TLE epoch observation values (Epoch: 2026-05-29T10:52:13.943Z)
Latitude
-0.00005°
Longitude
179.3825°
Altitude
910.53 km
Speed
7.432 km/s
True Right ascension
15h 17m 41s
True Declination
0° 00' 00"
Sunlit
Object was in full shadow at epoch
Visualization orbit readout
Latitude
Unknown
Longitude
Unknown
Altitude
Unknown
Speed
Unknown
Apparent Right ascension
Unknown
Apparent Declination
Unknown
Sunlit
N/A
Visualization observer readout
Local Sidereal Time
23:01:51
Azimuth
Unknown
Elevation
Unknown
Doppler factor
Unknown
Orbital elements
Apogee altitude
1,132.7 km
Perigee altitude
818.649 km
Semi-major axis
7,353.812 km
Eccentricity
0.02135
Inclination
99.5155°
RAAN
229.4237°
Arg. of periapsis
64.4632°
True anomaly
295.65244°
Mean anomaly
297.8428°
Eccentric anomaly
296.7503°
Mean motion
3.44171 °/min
Orbital period
104.6 mins
BSTAR
0.0012254
Loading maneuver chart data...
Computing Atmospheric mass density...
Loading historical data...
Loading historical data...
Loading historical data...
Loading historical data...
Loading historical data...
Loading historical data...
Loading historical data...

Documentation

Showing up to 5 results
|